#timestamp,LO_Frequency,Hit,StdDev 
1546045215.3,286047001.4,N
1546045235.1,286047002.3,Y
1546045255.9,286047000.1,P
1546045275.7,286047004.2,P
1546045295.6,286047004.3,N
1546045315.4,286047004.0,N
1546045335.2,286047001.5,N
1546045355.1,286047001.9,N
1546045356.0,286047001.9,N
1546045375.8,286047001.0,N
1546045395.6,286047000.0,N
1546045415.5,286046999.8,N
1546045435.3,286047000.5,N
1546045455.2,286047000.2,N
1546045475.9,286047000.5,N
1546045495.7,286047000.1,N
1546045515.6,286047000.2,N
1546045535.4,286046998.1,N
1546045555.2,286046998.1,N
1546045575.1,286047002.0,N
1546045576.0,286047002.0,N
1546045595.8,286047002.4,N
1546045615.7,286047000.0,N
1546045635.5,286046999.7,N
1546045655.3,286047002.5,N
1546045675.2,286047000.7,N
1546045695.0,286047000.9,N
1546045695.9,286047000.9,N
1546045715.7,286047000.0,N
1546045735.6,286047001.1,N
1546045755.4,286047001.2,N
1546045775.3,286047001.0,N
1546045795.1,286046998.5,N
1546045796.0,286046998.5,N
1546045815.8,286047001.2,N
1546045835.7,286047001.0,N
1546045855.5,286047000.6,N
1546045875.3,286047000.8,N
1546045895.2,286047000.3,N
1546045915.0,286047000.4,N
1546045915.9,286047000.4,N
1546045935.8,286047002.6,N
1546045955.6,286047001.9,N
1546045975.4,286047001.8,N
1546045995.3,286047002.3,N
1546046015.1,286047003.7,N
1546046035.8,286046999.8,N
1546046055.7,286047002.7,N
1546046075.5,286047000.9,N
1546046095.4,286047002.1,N
1546046115.2,286047003.8,Y
1546046135.0,286047002.3,P
1546046135.9,286047002.3,P
1546046155.8,286047001.2,N
1546046175.6,286046998.2,Y
1546046195.4,286046999.6,P
1546046215.3,286046996.7,P
1546046235.1,286046997.2,N
1546046255.9,286046998.7,N
1546046275.7,286046998.2,N
1546046295.5,286046998.8,N
1546046315.4,286046999.1,N
1546046335.2,286047000.7,N
1546046355.0,286046999.3,N
1546046355.9,286046999.3,N
1546046375.8,286046999.3,N
1546046395.6,286046999.2,N
1546046415.5,286046999.2,N
1546046435.3,286046996.9,N
1546046455.1,286046999.1,N
1546046475.9,286046999.6,N
1546046495.7,286047001.1,N
1546046515.5,286046999.5,N
1546046535.4,286046997.2,N
1546046555.2,286046996.9,N
1546046575.1,286046996.8,N
1546046576.0,286046996.8,N
1546046595.8,286046999.2,N
1546046615.6,286046996.6,N
1546046635.5,286046999.1,N
1546046655.3,286046998.7,N
1546046675.1,286046999.6,N
1546046695.9,286046997.4,N
1546046715.7,286046998.0,N
1546046735.6,286046999.6,N
1546046755.4,286046999.4,N
1546046775.2,286046996.5,N
1546046795.1,286046999.1,N
1546046796.0,286046999.1,N
1546046815.8,286047002.8,N
1546046835.6,286047000.6,N
1546046855.5,286046999.0,N
1546046875.3,286046996.5,N
1546046895.1,286046996.9,N
1546046915.9,286046999.5,N
1546046935.7,286047000.8,N
1546046955.6,286047001.0,N
1546046975.4,286047000.6,N
1546046995.2,286046999.4,N
1546047015.1,286046999.0,N
1546047016.0,286046999.0,N
1546047035.8,286046998.9,N
1546047055.6,286046996.7,N
1546047075.5,286046999.0,N
1546047095.3,286046998.8,N
1546047115.2,286047001.2,N
1546047135.9,286047002.4,N
1546047155.7,286046999.9,N
1546047175.6,286047000.9,N
1546047195.4,286047002.3,N
1546047215.2,286047002.3,N
1546047235.1,286047000.3,N
1546047236.0,286047000.3,N
1546047255.8,286047002.2,N
1546047275.7,286047002.0,N
1546047295.5,286047001.9,N
1546047315.3,286047002.6,N
1546047335.2,286047001.3,N
1546047355.0,286047002.5,N
1546047355.9,286047002.5,N
1546047375.7,286047001.8,N
1546047395.6,286047002.3,N
1546047415.4,286047000.7,N
1546047435.3,286046998.1,N
1546047455.1,286047000.6,N
1546047456.0,286047000.6,N
1546047475.8,286047001.1,N
1546047495.7,286046999.3,N
1546047515.5,286046998.3,N
1546047535.3,286047000.9,N
1546047555.2,286046998.4,N
1546047575.0,286047001.1,N
1546047575.9,286047001.1,N
1546047595.8,286047002.8,N
1546047615.6,286046999.8,N
1546047635.4,286047002.2,N
1546047655.3,286046998.4,N
1546047675.1,286046998.3,N
1546047695.8,286046998.7,N
1546047715.7,286047001.2,N
1546047735.5,286046998.2,N
1546047755.4,286046996.5,N
1546047775.2,286046998.6,N
1546047795.0,286046998.4,N
1546047795.9,286046998.4,N
1546047815.8,286047000.6,N
1546047835.6,286046998.5,N
1546047855.4,286046998.4,N
1546047875.3,286046998.1,N
1546047895.1,286046998.8,N
1546047915.9,286046998.6,N
1546047935.7,286046998.5,N
1546047955.5,286046999.5,N
1546047975.4,286046996.9,N
1546047995.2,286046998.6,N
1546048015.0,286046999.0,N
1546048015.9,286046999.0,N
1546048035.8,286046997.3,N
1546048055.6,286046996.6,N
1546048075.4,286046998.4,N
1546048095.3,286046999.1,N
1546048115.1,286046999.1,N
1546048135.9,286046999.3,N
1546048155.7,286046999.0,N
1546048175.5,286046999.0,N
1546048195.4,286047001.1,N
1546048215.2,286047000.8,N
1546048235.0,286047000.5,N
1546048235.9,286047000.5,N
1546048255.8,286047002.8,N
1546048275.6,286046999.8,N
1546048295.5,286046999.8,N
1546048315.3,286047002.7,N
1546048335.1,286047002.5,N
1546048355.9,286047002.1,N
1546048375.7,286047003.6,N
1546048395.5,286047002.2,N
1546048415.4,286047003.9,N
1546048435.2,286047002.1,N
1546048455.1,286047004.1,N
1546048456.0,286047004.1,N
1546048475.8,286047005.2,N
1546048495.6,286047005.8,N
1546048515.5,286047005.2,N
1546048535.3,286047004.4,N
1546048555.1,286047003.4,N
1546048575.9,286047004.2,N
1546048595.7,286047001.3,N
1546048615.6,286047004.3,N
1546048635.4,286047002.8,N
1546048655.2,286047000.1,N
1546048675.1,286047002.4,N
1546048676.0,286047002.4,N
1546048695.8,286046999.8,N
1546048715.6,286047000.1,N
1546048735.5,286047002.8,N
1546048755.3,286046998.8,N
1546048775.2,286046999.1,N
1546048795.9,286046998.7,N
